[[{"header":{"parameterUnit":"m.s-1","parameterCategory":1,"la1":30.2991,"la2":30.254,"lo1":-89.0895,"lo2":-89.0444,"dy":0.0017,"dx":0.0017,"nx":28,"ny":28,"refTime":"2023-10-11T09:00:00:Z","depth":0,"parameterNumber":2,"parameterNumberName":"U-component_of_WINDS"},"data":[0,0,0,0,0,0,0,0,0,0,0,0,0,0,0,0,0,0,0,0,0,0,0,0,0,0,0,0,0,0,0,0,0,0,0,0,0,0,0,0,0,0,0,0,0,0,0,0,0,0,0,0,0,0,0,0,0,0,-8.9707,-8.9707,0,-8.9729,-8.9729,-8.9729,-8.9543,-8.9538,-8.9533,-8.9528,-8.9549,-8.9554,-8.956,0,0,0,0,0,0,0,0,0,0,0,0,0,-8.9502,-8.9507,-8.9707,-8.9707,-8.9707,-8.9729,-8.9729,-8.9729,-8.9544,-8.9538,-8.9531,-8.9526,-8.9547,-8.9554,-8.956,0,0,0,0,0,0,0,0,0,0,0,0,0,-8.9565,-8.9509,-8.9707,-8.9617,-8.961,-8.9729,-8.9729,-8.9729,-8.9545,-8.9538,-8.953,-8.9523,-8.9545,-8.9553,-8.9561,-8.9766,0,0,-8.9586,-8.9589,0,0,0,0,0,0,0,0,-8.9561,-8.9572,-8.963,-8.9624,-8.9615,-8.9625,-8.9664,-8.9742,-8.9547,-8.957,-8.9528,-8.9519,-8.9581,-8.9585,-8.9606,-8.9767,-8.9768,-8.9586,-8.9591,-8.9595,-8.9597,0,0,0,0,0,0,0,-8.9557,-8.957,-8.9715,-8.9631,-8.9622,-8.9576,-8.9576,-8.9678,-8.9618,-8.9567,-8.9554,-8.9559,-8.9575,-8.9599,-8.9605,-8.9768,-8.9586,-8.9593,-8.9598,-8.9601,-9.0099,-9.0107,0,0,0,0,0,0,-8.9565,-8.9568,-8.9715,-8.9716,-8.9569,-8.9586,-8.9586,-8.963,-8.9617,-8.9607,-8.9566,-8.955,-8.9589,-8.9596,-8.9605,-8.9845,-8.9595,-8.9602,-8.9607,-9.009,-9.01,-9.0109,0,0,0,0,0,0,-8.9561,-8.958,-8.9714,-8.9638,-8.9652,-8.9598,-8.9648,-8.9634,-8.9658,-8.9616,-8.9604,-8.9601,-8.9583,-8.9594,-8.9728,-8.9843,-8.9606,-8.9613,-9.008,-9.0093,-9.0105,-9.0327,0,0,0,0,0,0,-8.9556,-8.958,-8.9658,-8.9642,-8.9657,-8.9837,-8.9655,-8.964,-8.9673,-8.9653,-8.9646,-8.9637,-8.9578,-8.9717,-8.9736,-8.985,-8.9619,-9.007,-9.0086,-9.0101,-9.0309,-9.0345,-9.0376,0,0,0,0,0,-8.955,-8.9719,-8.9663,-8.9681,-8.9753,-8.9844,-8.9852,-8.9781,-8.9683,-8.976,-8.9733,-8.9638,-8.9828,-8.9732,-8.9752,-8.987,-9.0062,-9.0082,-9.01,-9.0293,-9.0338,-9.0375,0,0,0,0,0,0,-8.9749,-8.9715,-8.9652,-8.9821,-8.9837,-8.9812,-8.9908,-8.983,-8.9874,-8.9853,-8.9762,-8.9762,-8.9911,-8.9903,-8.9798,-9.0068,-8.9928,-8.9951,-9.0068,-9.011,-9.0143,-9.0142,-8.9626,0,0,0,0,0,-8.9813,-8.989,-8.9855,-9.0008,-9.0019,-8.9963,-9.0,-8.9944,-8.9956,-8.9961,-8.9943,-8.9959,-9.0022,-9.0065,-9.0121,-9.0306,-9.0302,-9.0398,-9.0432,-9.046,-9.0481,-9.058,-9.0622,-9.0171,-9.0171,-9.0171,0,0,-8.9945,-8.9936,-8.999,-9.0048,-9.0053,-9.0135,-8.997,-9.0063,-9.0122,-8.9975,-9.0101,-9.0089,-9.0099,-9.0261,-9.033,-9.0259,-9.0605,-9.0484,-9.0506,-9.0513,-9.0603,-9.0646,-9.0684,-9.0184,-9.0182,-9.018,0,0,-9.0227,-9.0228,-9.0355,-9.0365,-9.0376,-9.0337,-9.0368,-9.0356,-9.0342,-9.0467,-9.0358,-9.0427,-9.0538,-9.055,-9.0571,-9.086,-9.0774,-9.0881,-9.1057,-9.1154,-9.119,-9.1221,-9.1324,-9.1363,-9.0902,-9.0903,-9.0903,0,-9.039,-9.0509,-9.043,-9.0532,-9.056,-9.0432,-9.056,-9.0572,-9.0601,-9.0624,-9.0543,-9.068,-9.0678,-9.084,-9.0911,-9.0932,-9.0964,-9.0881,-9.1191,-9.1222,-9.1249,-9.1347,-9.1386,-9.0916,-9.0914,-9.0913,-9.0912,0,-9.0709,-9.0794,-9.0895,-9.0927,-9.0967,-9.1082,-9.102,-9.1069,-9.101,-9.098,-9.1109,-9.1102,-9.1155,-9.1189,-9.1131,-9.1344,-9.1299,-9.1207,-9.1063,-9.1307,-9.1397,-9.1434,-9.0934,-9.093,-9.0926,-9.0923,0,0,-9.1117,-9.1105,-9.1144,-9.1157,-9.116,-9.1224,-9.1332,-9.1384,-9.1429,-9.1453,-9.1542,-9.1639,-9.1553,-9.1577,-9.152,-9.1605,-9.1835,-9.1501,-9.15,-9.1564,-9.2069,-9.2139,-9.2184,-9.1778,-9.1785,-9.179,-9.2068,0,-9.1393,-9.1579,-9.1511,-9.1701,-9.1778,-9.1658,-9.1752,-9.1764,-9.1739,-9.1801,-9.1772,-9.1843,-9.1724,-9.1738,-9.1817,-9.1791,-9.1935,-9.1769,-9.186,-9.1864,-9.1861,-9.2231,-9.2305,-9.2568,-9.2103,-9.2109,-9.2113,0,-9.174,-9.178,-9.1978,-9.1968,-9.1998,-9.2084,-9.2127,-9.2187,-9.2198,-9.2174,-9.2202,-9.2127,-9.2232,-9.2089,-9.2233,-9.2122,-9.2155,-9.2148,-9.2156,-9.2162,-9.2004,-9.2247,-9.265,-9.269,-9.2168,-9.2164,-9.216,0,-9.2019,-9.2122,-9.2253,-9.2268,-9.226,-9.2324,-9.2323,-9.2327,-9.2363,-9.24,-9.2422,-9.2471,-9.2498,-9.2537,-9.2477,-9.2379,-9.263,-9.2482,-9.2613,-9.2615,-9.2671,-9.2669,-9.3086,-9.2693,-9.2692,-9.2692,-9.2691,0,-9.2335,-9.2461,-9.2379,-9.246,-9.2597,-9.2519,-9.2657,-9.2642,-9.2647,-9.2723,-9.2621,-9.2694,-9.261,-9.2676,-9.2629,-9.2756,-9.2768,-9.2752,-9.2738,-9.2761,-9.2764,-9.2782,-9.2762,-9.2702,-9.27,-9.2698,-9.2696,0,-9.267,-9.262,-9.2755,-9.2737,-9.2736,-9.2838,-9.2822,-9.2896,-9.2864,-9.2962,-9.298,-9.293,-9.3002,-9.2946,-9.3016,-9.2984,-9.3152,-9.3112,-9.3149,-9.3138,-9.3272,-9.3261,-9.3716,-9.3772,-9.3343,-9.3347,-9.3351,0,-9.2874,-9.2969,-9.2961,-9.3005,-9.3011,-9.3084,-9.312,-9.3046,-9.3088,-9.3108,-9.318,-9.3244,-9.329,-9.3411,-9.338,-9.3434,-9.3394,-9.355,-9.3402,-9.3423,-9.3397,-9.3393,-9.3402,-9.3581,-9.3586,-9.359,-9.3593,0,-9.3243,-9.3214,-9.3271,-9.332,-9.3367,-9.3402,-9.3428,-9.347,-9.3394,-9.3447,-9.3519,-9.3556,-9.3628,-9.3692,-9.3735,-9.3734,-9.3652,-9.364,-9.3673,-9.3698,-9.3716,-9.3708,-9.3232,-9.363,-9.3626,-9.3624,-9.3622,-9.362,-9.3519,-9.3598,-9.3605,-9.3672,-9.3684,-9.3712,-9.3781,-9.3758,-9.3818,-9.3871,-9.3823,-9.3911,-9.392,-9.397,-9.3979,-9.4046,-9.3981,-9.4029,-9.4041,-9.4054,-9.4074,-9.3706,-9.4053,-9.4052,-9.4051,-9.405,-9.4049,0,-9.3883,-9.3882,-9.3945,-9.3985,-9.4038,-9.3957,-9.3982,-9.4032,-9.411,-9.4126,-9.4174,-9.4258,-9.432,-9.4296,-9.435,-9.4409,-9.4373,-9.4426,-9.4421,-9.4422,-9.4128,-9.4094,-9.4454,-9.4454,-9.4454,-9.4454,-9.4454,-9.4454,-9.4079,-9.4207,-9.418,-9.4313,-9.431,-9.4396,-9.4418,-9.4443,-9.4455,-9.4553,-9.4605,-9.4588,-9.4588,-9.4642,-9.4695,-9.4686,-9.4711,-9.4778,-9.4756,-9.4482,-9.4442,-9.4404,-9.4372,-9.4784,-9.4785,-9.5043,-9.5046,-9.5048]},{"header":{"parameterUnit":"m.s-1","parameterCategory":1,"la1":30.2991,"la2":30.254,"lo1":-89.0895,"lo2":-89.0444,"dy":0.0017,"dx":0.0017,"nx":28,"ny":28,"refTime":"2023-10-11T09:00:00:Z","depth":0,"parameterNumber":3,"parameterNumberName":"V-component_of_WINDS"},"data":[0,0,0,0,0,0,0,0,0,0,0,0,0,0,0,0,0,0,0,0,0,0,0,0,0,0,0,0,0,0,0,0,0,0,0,0,0,0,0,0,0,0,0,0,0,0,0,0,0,0,0,0,0,0,0,0,0,0,-4.6158,-4.6159,0,-4.6218,-4.6218,-4.6219,-4.6163,-4.6161,-4.6159,-4.6157,-4.6216,-4.622,-4.6224,0,0,0,0,0,0,0,0,0,0,0,0,0,-4.5993,-4.5996,-4.6158,-4.6159,-4.6159,-4.6217,-4.6218,-4.6219,-4.6164,-4.6161,-4.6158,-4.6156,-4.6215,-4.6219,-4.6224,0,0,0,0,0,0,0,0,0,0,0,0,0,-4.606,-4.5998,-4.6158,-4.6139,-4.6138,-4.6217,-4.6218,-4.6219,-4.6164,-4.6161,-4.6158,-4.6155,-4.6214,-4.6219,-4.6224,-4.6325,0,0,-4.6241,-4.6244,0,0,0,0,0,0,0,0,-4.6056,-4.6066,-4.6141,-4.614,-4.6139,-4.618,-4.6182,-4.6255,-4.6165,-4.6154,-4.6157,-4.6153,-4.6207,-4.6213,-4.6231,-4.6328,-4.6331,-4.6242,-4.6245,-4.6247,-4.6249,0,0,0,0,0,0,0,-4.6052,-4.6063,-4.6181,-4.6142,-4.6141,-4.6126,-4.6132,-4.6195,-4.6198,-4.6155,-4.6151,-4.6159,-4.6206,-4.6226,-4.6232,-4.6331,-4.6242,-4.6246,-4.625,-4.6252,-4.6512,-4.6515,0,0,0,0,0,0,-4.6049,-4.606,-4.6179,-4.6183,-4.6089,-4.6132,-4.6139,-4.617,-4.6198,-4.6199,-4.6162,-4.6156,-4.6218,-4.6226,-4.6234,-4.6352,-4.6247,-4.6253,-4.6256,-4.6508,-4.6513,-4.6517,0,0,0,0,0,0,-4.6046,-4.6061,-4.6177,-4.612,-4.6134,-4.6138,-4.6174,-4.6173,-4.6193,-4.6203,-4.6203,-4.6182,-4.6216,-4.6226,-4.6303,-4.6354,-4.6255,-4.626,-4.6504,-4.651,-4.6515,-4.6591,0,0,0,0,0,0,-4.6042,-4.606,-4.6099,-4.6122,-4.6137,-4.6246,-4.6177,-4.6177,-4.6203,-4.6196,-4.6222,-4.6223,-4.6214,-4.6295,-4.6308,-4.636,-4.6264,-4.65,-4.6507,-4.6513,-4.6584,-4.6599,-4.6611,0,0,0,0,0,-4.6036,-4.6118,-4.6101,-4.6116,-4.6187,-4.6249,-4.6258,-4.6246,-4.6207,-4.6246,-4.6252,-4.6222,-4.6346,-4.6303,-4.6318,-4.6372,-4.6496,-4.6505,-4.6513,-4.6578,-4.6596,-4.6611,0,0,0,0,0,0,-4.6101,-4.6121,-4.6102,-4.6195,-4.6221,-4.624,-4.6288,-4.6266,-4.6303,-4.6295,-4.6278,-4.6285,-4.6365,-4.6376,-4.6328,-4.6469,-4.6415,-4.6426,-4.646,-4.6476,-4.649,-4.6485,-4.6269,0,0,0,0,0,-4.6126,-4.6176,-4.619,-4.627,-4.6284,-4.6284,-4.6311,-4.63,-4.6326,-4.6336,-4.6348,-4.6374,-4.6418,-4.6448,-4.649,-4.6585,-4.6589,-4.6629,-4.6643,-4.6654,-4.6664,-4.6714,-4.6731,-4.6543,-4.6543,-4.6543,0,0,-4.6179,-4.6195,-4.6228,-4.6284,-4.6303,-4.6353,-4.6294,-4.6351,-4.6388,-4.6345,-4.6417,-4.6427,-4.6454,-4.6541,-4.6579,-4.6552,-4.6717,-4.6664,-4.6673,-4.6677,-4.6724,-4.6742,-4.6757,-4.6549,-4.6548,-4.6547,0,0,-4.63,-4.6318,-4.6386,-4.6406,-4.6435,-4.6434,-4.6451,-4.6473,-4.6478,-4.655,-4.6519,-4.6562,-4.664,-4.666,-4.6681,-4.6808,-4.6782,-4.6822,-4.6892,-4.6941,-4.6956,-4.6969,-4.7013,-4.703,-4.6832,-4.6833,-4.6833,0,-4.6361,-4.6437,-4.6424,-4.6483,-4.6507,-4.6471,-4.6539,-4.6558,-4.66,-4.6617,-4.6586,-4.6682,-4.6698,-4.6788,-4.6819,-4.6837,-4.6854,-4.6819,-4.6955,-4.6968,-4.698,-4.7022,-4.7039,-4.6837,-4.6837,-4.6836,-4.6836,0,-4.651,-4.6564,-4.6615,-4.6656,-4.6686,-4.6749,-4.6744,-4.6776,-4.6762,-4.6764,-4.6838,-4.6856,-4.69,-4.692,-4.6907,-4.7008,-4.699,-4.6958,-4.6902,-4.7003,-4.7042,-4.7058,-4.6844,-4.6842,-4.6841,-4.684,0,0,-4.6675,-4.6707,-4.6726,-4.6743,-4.6772,-4.6812,-4.6873,-4.6916,-4.6944,-4.6973,-4.7022,-4.7088,-4.7058,-4.7081,-4.707,-4.7113,-4.7211,-4.7075,-4.7075,-4.7099,-4.7322,-4.7346,-4.7365,-4.7194,-4.7197,-4.72,-4.7319,0,-4.6796,-4.6902,-4.6891,-4.6992,-4.704,-4.7005,-4.7058,-4.7081,-4.7084,-4.7124,-4.7127,-4.7174,-4.7131,-4.7145,-4.7186,-4.7191,-4.7256,-4.7182,-4.7239,-4.7241,-4.7233,-4.7386,-4.7411,-4.7524,-4.7335,-4.7337,-4.7339,0,-4.6952,-4.6987,-4.7093,-4.7113,-4.7132,-4.718,-4.7218,-4.7258,-4.7282,-4.7281,-4.7307,-4.7288,-4.7347,-4.7291,-4.7372,-4.7322,-4.7345,-4.7351,-4.7355,-4.7359,-4.7296,-4.7393,-4.7559,-4.7576,-4.7364,-4.7362,-4.736,0,-4.706,-4.7133,-4.7206,-4.7222,-4.7247,-4.7281,-4.7294,-4.7315,-4.7341,-4.7374,-4.739,-4.743,-4.7451,-4.7482,-4.7473,-4.7433,-4.7556,-4.7499,-4.7556,-4.7557,-4.7584,-4.7582,-4.7755,-4.7599,-4.7599,-4.7599,-4.7599,0,-4.7197,-4.7262,-4.7254,-4.7299,-4.737,-4.7357,-4.7428,-4.7435,-4.7455,-4.7499,-4.7471,-4.7513,-4.75,-4.7541,-4.7535,-4.7602,-4.7612,-4.7612,-4.761,-4.7615,-4.7615,-4.7629,-4.7621,-4.7603,-4.7602,-4.7601,-4.7601,0,-4.7329,-4.7327,-4.7403,-4.7421,-4.7427,-4.7479,-4.7494,-4.7535,-4.7535,-4.7592,-4.7604,-4.7605,-4.7652,-4.7646,-4.7699,-4.7694,-4.7778,-4.7767,-4.777,-4.7767,-4.7824,-4.7819,-4.8012,-4.8036,-4.7866,-4.7867,-4.7869,0,-4.7416,-4.7466,-4.7489,-4.7517,-4.7531,-4.7577,-4.7603,-4.7591,-4.7619,-4.765,-4.7687,-4.7732,-4.7766,-4.7843,-4.7848,-4.7887,-4.7876,-4.7941,-4.7881,-4.7884,-4.7876,-4.7872,-4.7877,-4.7952,-4.7954,-4.7956,-4.7957,0,-4.757,-4.7566,-4.7606,-4.7645,-4.7677,-4.7707,-4.7734,-4.7758,-4.7748,-4.7782,-4.7829,-4.7856,-4.7909,-4.7953,-4.799,-4.8002,-4.7978,-4.7976,-4.7991,-4.7996,-4.7995,-4.7995,-4.7801,-4.7971,-4.797,-4.7969,-4.7968,-4.7967,-4.7682,-4.7724,-4.7746,-4.7791,-4.781,-4.7836,-4.7875,-4.788,-4.792,-4.7962,-4.7952,-4.8006,-4.8027,-4.8075,-4.809,-4.8131,-4.8107,-4.8129,-4.8135,-4.814,-4.8147,-4.7989,-4.8138,-4.8137,-4.8137,-4.8137,-4.8136,0,-4.7833,-4.7846,-4.7887,-4.7926,-4.7961,-4.7935,-4.7963,-4.7994,-4.8041,-4.8064,-4.8099,-4.8153,-4.8195,-4.8203,-4.8243,-4.8274,-4.8264,-4.8285,-4.8282,-4.8285,-4.8166,-4.8149,-4.8292,-4.8292,-4.8292,-4.8292,-4.8292,-4.8292,-4.7916,-4.7986,-4.7984,-4.8062,-4.8074,-4.8126,-4.8144,-4.8167,-4.8185,-4.8247,-4.8282,-4.8287,-4.8303,-4.8344,-4.8381,-4.8382,-4.8398,-4.8423,-4.842,-4.8309,-4.8293,-4.8278,-4.8262,-4.8427,-4.8427,-4.8535,-4.8536,-4.8537]}]]